Weather History for KCAK - December, 2011

Change the Weather History Date:

Saturday, December 10, 2011

  Actual Average Record
Temperature  
Mean Temperature 25 °F 32 °F  
Max Temperature 30 °F 39 °F 67 °F (1971)
Min Temperature 20 °F 26 °F -11 °F (1958)
Degree Days  
Heating Degree Days 40 33  
Month to date heating degree days 285 314  
Since 1 July heating degree days 1313 1573  
Cooling Degree Days 0 0  
Month to date cooling degree days 0 0  
Year to date cooling degree days 911 652  
Moisture  
Dew Point 14 °F    
Average Humidity 63    
Maximum Humidity 78    
Minimum Humidity 47    
Precipitation  
Precipitation T in 0.10 in 0.77 in (1997)
Month to date precipitation 1.62 0.99  
Year to date precipitation 55.25 37.77  
Snow  
Snow T in 0.30 in - ()
Month to date snowfall T 2.8  
Since 1 July snowfall 0.1 6.2  
Snow Depth 0.00 in    
Sea Level Pressure  
Sea Level Pressure 30.47 in    
Wind  
Wind Speed 6 mph (West)    
Max Wind Speed 13 mph    
Max Gust Speed 18 mph    
Visibility 9 miles    
Events      
T = Trace of Precipitation, MM = Missing Value Source: NWS Daily Summary

Daily Weather History Graph

Daily Weather History Graph

Search for Another Location

Airport or City:

Trip Planner

Search our weather history database for the weather conditions in past years. The results will help you decide how hot, cold, wet, or windy it might be!

Date:

Astronomy

Dec. 10, 2011 Rise Set
Actual Time 7:39 AM EST 4:57 PM EST
Civil Twilight 7:08 AM EST 5:28 PM EST
Nautical Twilight 6:33 AM EST 6:03 PM EST
Astronomical Twilight 6:00 AM EST 6:36 PM EST
Moon 5:10 PM EST (12/10) 7:38 AM EST (12/10)
Length of Visible Light 10h 20m
Length of Day
9h 18m
Full, 100% of the Moon is Illuminated
Dec 10
Full
Dec 17
Last Quarter
Dec 24
New
Jan 1
First Quarter
Jan 9
Full

Hourly Weather History & Observations

Time (EST) Temp. Windchill Dew Point Humidity Pressure Visibility Wind Dir Wind Speed Gust Speed Precip Events Conditions
12:51 AM 28.9 °F 20.4 °F 23.0 °F 78% 30.34 in 10.0 mi NW 9.2 mph - 0.00 in   Overcast
1:51 AM 26.1 °F 15.0 °F 19.0 °F 75% 30.34 in 10.0 mi NW 12.7 mph - 0.00 in   Mostly Cloudy
2:51 AM 25.0 °F 14.2 °F 14.0 °F 63% 30.37 in 10.0 mi NW 11.5 mph - N/A   Mostly Cloudy
3:51 AM 23.0 °F 13.9 °F 14.0 °F 68% 30.39 in 10.0 mi NW 8.1 mph - N/A   Clear
4:51 AM 21.0 °F 12.4 °F 12.0 °F 68% 30.40 in 10.0 mi WNW 6.9 mph - N/A   Clear
5:51 AM 21.0 °F 11.4 °F 12.9 °F 71% 30.42 in 10.0 mi WNW 8.1 mph - N/A   Clear
6:51 AM 21.0 °F 13.4 °F 12.9 °F 71% 30.44 in 10.0 mi West 5.8 mph - N/A   Clear
9:51 AM 24.1 °F 16.0 °F 14.0 °F 65% 30.49 in 7.0 mi WSW 6.9 mph - N/A   Partly Cloudy
10:51 AM 28.0 °F 21.7 °F 16.0 °F 61% 30.50 in 7.0 mi West 5.8 mph - N/A   Scattered Clouds
11:51 AM 28.0 °F 18.6 °F 14.0 °F 56% 30.50 in 7.0 mi West 10.4 mph - N/A   Scattered Clouds
12:51 PM 28.0 °F 20.0 °F 12.0 °F 51% 30.48 in 10.0 mi West 8.1 mph - N/A   Scattered Clouds
1:51 PM 28.9 °F 25.2 °F 12.9 °F 51% 30.48 in 10.0 mi Variable 3.5 mph - N/A   Scattered Clouds
2:51 PM 30.0 °F 22.4 °F 12.9 °F 49% 30.47 in 10.0 mi WNW 8.1 mph - N/A   Scattered Clouds
3:51 PM 28.9 °F 21.1 °F 12.0 °F 49% 30.48 in 10.0 mi West 8.1 mph - N/A   Partly Cloudy
4:51 PM 27.0 °F 23.0 °F 12.9 °F 56% 30.48 in 10.0 mi West 3.5 mph - N/A   Clear
5:51 PM 24.1 °F 19.7 °F 12.9 °F 62% 30.50 in 10.0 mi WNW 3.5 mph - N/A   Clear
6:51 PM 25.0 °F 20.7 °F 12.0 °F 58% 30.51 in 10.0 mi West 3.5 mph - N/A   Clear
7:51 PM 24.1 °F - 12.9 °F 62% 30.53 in 10.0 mi Calm Calm - N/A   Clear
8:51 PM 23.0 °F 18.4 °F 12.9 °F 65% 30.53 in 9.0 mi WSW 3.5 mph - N/A   Clear
9:51 PM 21.9 °F - 14.0 °F 72% 30.53 in 9.0 mi Calm Calm - N/A   Clear
10:51 PM 19.9 °F 13.4 °F 12.9 °F 74% 30.54 in 8.0 mi SSW 4.6 mph - N/A   Clear
11:51 PM 21.0 °F 12.4 °F 12.9 °F 71% 30.54 in 8.0 mi WSW 6.9 mph - N/A   Clear